This is the latest recevied weather packets stored in our database for station/object IZ4UFQ-10. If no packets are shown the sender has not sent any weather packets the latest 10 day(s).
| Time | Temp. | Humidity | Pressure | Rain* | Wind** | Luminosity | Snow |
|---|---|---|---|---|---|---|---|
| 1777722135 | 21.67° C | 34% | 1024 hPa | 0 mm | - | 858 W/m² | - |
| 1777721834 | 21.67° C | 34% | 1024 hPa | 0 mm | - | 860 W/m² | - |
| 1777721534 | 21.67° C | 34% | 1024.1 hPa | 0 mm | - | 860 W/m² | - |
| 1777721234 | 21.67° C | 34% | 1024.2 hPa | 0 mm | - | 861 W/m² | - |
| 1777720933 | 21.11° C | 34% | 1024.2 hPa | 0 mm | - | 863 W/m² | - |
| 1777720633 | 21.67° C | 34% | 1024.3 hPa | 0 mm | - | 865 W/m² | - |
| 1777720333 | 21.67° C | 33% | 1024.4 hPa | 0 mm | - | 867 W/m² | - |
| 1777720032 | 21.67° C | 34% | 1024.5 hPa | 0 mm | - | 867 W/m² | - |
| 1777719732 | 21.67° C | 34% | 1024.6 hPa | 0 mm | - | 867 W/m² | - |
| 1777719432 | 21.67° C | 33% | 1024.6 hPa | 0 mm | - | 868 W/m² | - |
| 1777719132 | 21.11° C | 34% | 1024.7 hPa | 0 mm | - | 870 W/m² | - |
| 1777718831 | 21.11° C | 33% | 1024.7 hPa | 0 mm | - | 865 W/m² | - |
| 1777718531 | 21.11° C | 33% | 1024.9 hPa | 0 mm | - | 865 W/m² | - |
| 1777718231 | 21.11° C | 34% | 1025 hPa | 0 mm | - | 863 W/m² | - |
| 1777717931 | 21.11° C | 33% | 1025.1 hPa | 0 mm | - | 865 W/m² | - |
| 1777717630 | 20.56° C | 34% | 1025.1 hPa | 0 mm | - | 858 W/m² | - |
| 1777717330 | 20.56° C | 34% | 1025.2 hPa | 0 mm | - | 856 W/m² | - |
| 1777717030 | 20.56° C | 33% | 1025.2 hPa | 0 mm | - | 851 W/m² | - |
| 1777716729 | 20.56° C | 32% | 1025.3 hPa | 0 mm | - | 851 W/m² | - |
| 1777716429 | 20.56° C | 32% | 1025.4 hPa | 0 mm | - | 844 W/m² | - |
| 1777716129 | 20.56° C | 31% | 1025.4 hPa | 0 mm | - | 840 W/m² | - |
| 1777715828 | 20.56° C | 33% | 1025.4 hPa | 0 mm | - | 831 W/m² | - |
| 1777715528 | 20° C | 32% | 1025.5 hPa | 0 mm | - | 828 W/m² | - |
| 1777715228 | 20° C | 32% | 1025.5 hPa | 0 mm | - | 826 W/m² | - |
| 1777714928 | 20.56° C | 33% | 1025.5 hPa | 0 mm | - | 821 W/m² | - |
* Rain latest hour (hover to see other rain measurements)
** Current wind speed in m/s (hover to see current wind gust speed)